Weather History for Sarasota, FL

Change the Weather History Date:

Friday, December 28, 2012

  Actual Average Record
Temperature  
Mean Temperature 58 °F 62 °F  
Max Temperature 73 °F 71 °F 84 °F (1991)
Min Temperature 42 °F 52 °F 27 °F (2010)
Degree Days  
Heating Degree Days 7 5  
Month to date heating degree days 57 105  
Since 1 July heating degree days 98 138  
Cooling Degree Days 0 2  
Month to date cooling degree days 92 70  
Year to date cooling degree days 3816 3370  
Growing Degree Days 8 (Base 50)    
Moisture  
Dew Point 55 °F    
Average Humidity 83    
Maximum Humidity 100    
Minimum Humidity 49    
Precipitation  
Precipitation 0.27 in 0.07 in 1.76 in (1968)
Month to date precipitation 1.71 2.34  
Year to date precipitation 45.75 52.82  
Sea Level Pressure  
Sea Level Pressure 30.00 in    
Wind  
Wind Speed 7 mph (ESE)    
Max Wind Speed 13 mph    
Max Gust Speed 15 mph    
Visibility 9 miles    
Events Rain    
T = Trace of Precipitation, MM = Missing Value Source: NWS Daily Summary

Daily Weather History Graph

Daily Weather History Graph

Search for Another Location

Airport:

Trip Planner

Search our weather history database for the weather conditions in past years. The results will help you decide how hot, cold, wet, or windy it might be!

Date:

Astronomy

Dec. 28, 2012 Rise Set
Actual Time 7:19 AM EST 5:44 PM EST
Civil Twilight 6:53 AM EST 6:10 PM EST
Nautical Twilight 6:24 AM EST 6:39 PM EST
Astronomical Twilight 5:56 AM EST 7:08 PM EST
Moon 6:15 PM EST (12/28) 7:17 AM EST (12/28)
Length of Visible Light 11h 16m
Length of Day
10h 25m
Full, 100% of the Moon is Illuminated
Dec 28
Full
Jan 4
Last Quarter
Jan 11
New
Jan 18
First Quarter
Jan 26
Full

Hourly Weather History & Observations

Time (EST) Temp. Windchill Dew Point Humidity Pressure Visibility Wind Dir Wind Speed Gust Speed Precip Events Conditions
12:53 AM 46.9 °F - 45.0 °F 93% 30.07 in 10.0 mi NE 5.8 mph - N/A   Clear
1:53 AM 46.9 °F - 45.0 °F 93% 30.06 in 10.0 mi NNE 4.6 mph - N/A   Clear
2:53 AM 45.0 °F 43.5 °F 43.0 °F 93% 30.06 in 9.0 mi ENE 3.5 mph - N/A   Clear
3:53 AM 45.0 °F 41.8 °F 43.0 °F 93% 30.05 in 9.0 mi ENE 5.8 mph - N/A   Clear
4:53 AM 45.0 °F 41.2 °F 43.0 °F 93% 30.06 in 9.0 mi NE 6.9 mph - N/A   Clear
6:53 AM 43.0 °F 40.3 °F 42.1 °F 97% 30.06 in 8.0 mi East 4.6 mph - N/A   Clear
7:53 AM 46.0 °F 42.5 °F 44.1 °F 93% 30.06 in 9.0 mi East 6.9 mph - N/A   Clear
8:53 AM 52.0 °F - 46.0 °F 80% 30.07 in 10.0 mi East 5.8 mph - N/A   Clear
9:53 AM 57.0 °F - 46.9 °F 69% 30.08 in 10.0 mi East 6.9 mph - N/A   Scattered Clouds
10:53 AM 64.0 °F - 46.9 °F 54% 30.08 in 10.0 mi East 6.9 mph - N/A   Scattered Clouds
11:53 AM 68.0 °F - 48.0 °F 49% 30.04 in 10.0 mi SE 8.1 mph - N/A   Partly Cloudy
12:53 PM 70.0 °F - 51.1 °F 51% 30.00 in 10.0 mi ESE 10.4 mph - N/A   Overcast
1:05 PM 69.8 °F - 51.8 °F 53% 30.00 in 10.0 mi ESE 6.9 mph - N/A   Overcast
1:32 PM 71.6 °F - 53.6 °F 53% 29.97 in 10.0 mi ESE 10.4 mph - N/A   Mostly Cloudy
1:53 PM 72.0 °F - 55.0 °F 55% 29.97 in 10.0 mi ESE 8.1 mph - N/A   Mostly Cloudy
2:53 PM 70.0 °F - 57.0 °F 63% 29.95 in 10.0 mi ESE 8.1 mph - 0.00 in Rain Light Rain
3:50 PM 68.0 °F - 59.0 °F 73% 29.95 in 7.0 mi SE 9.2 mph - 0.01 in Rain Rain
3:53 PM 66.9 °F - 59.0 °F 76% 29.95 in 6.0 mi SE 10.4 mph - 0.01 in Rain Light Rain
4:40 PM 64.4 °F - 62.6 °F 94% 29.95 in 8.0 mi ENE 4.6 mph - 0.14 in Rain Light Rain
4:53 PM 64.9 °F - 62.1 °F 90% 29.95 in 10.0 mi ENE 6.9 mph - 0.14 in Rain Light Rain
5:28 PM 64.4 °F - 62.6 °F 94% 29.95 in 10.0 mi East 6.9 mph - 0.00 in   Overcast
5:53 PM 64.9 °F - 63.0 °F 93% 29.94 in 10.0 mi East 8.1 mph - 0.00 in   Overcast
6:53 PM 64.9 °F - 63.0 °F 93% 29.96 in 8.0 mi ESE 9.2 mph - 0.02 in Rain Light Rain
7:40 PM 64.4 °F - 64.4 °F 100% 29.97 in 7.0 mi SE 5.8 mph - 0.03 in Rain Light Rain
7:53 PM 64.9 °F - 64.0 °F 97% 29.97 in 6.0 mi SE 9.2 mph - 0.05 in Rain Light Rain
8:02 PM 64.4 °F - 64.4 °F 100% 29.97 in 4.0 mi ESE 8.1 mph - 0.03 in Rain Light Rain
8:42 PM 64.4 °F - 64.4 °F 100% 29.96 in 8.0 mi ESE 9.2 mph - 0.04 in   Overcast
8:53 PM 64.9 °F - 64.0 °F 97% 29.96 in 7.0 mi SE 6.9 mph - 0.04 in   Overcast
9:53 PM 66.0 °F - 64.9 °F 96% 29.96 in 10.0 mi SE 5.8 mph - 0.01 in   Overcast
10:53 PM 66.9 °F - 66.0 °F 97% 29.95 in 10.0 mi SSE 6.9 mph - N/A   Overcast
11:53 PM 66.9 °F - 66.0 °F 97% 29.93 in 10.0 mi SSE 8.1 mph - 0.00 in Rain Light Rain